Total_Precipitation_Accumulation
0.11 0.31 0.61 0.92 1.23 1.58 1.46 0.96 0.68 0.64 0.70 0.65 0.70 0.72 0.73 0.81 1.19 1.97 1.54 1.20 1.13 1.11 1.10 1.33 1.56 1.41 1.41 1.40 1.44 1.56 1.57 1.58 1.62 1.60 1.58 1.60 1.62 1.64 1.61 1.62 1.72 1.76 1.74 1.81 1.81 1.66 1.53 1.36 1.27
0.18 0.41 0.66 0.98 1.45 1.81 1.48 0.82 0.62 0.65 0.64 0.55 0.57 0.68 0.79 0.69 0.70 1.00 1.15 1.03 0.84 0.82 0.89 0.99 1.30 1.31 1.26 1.27 1.34 1.45 1.45 1.43 1.44 1.47 1.52 1.56 1.62 1.69 1.74 1.74 1.77 1.72 1.70 1.89 1.74 1.56 1.32 1.18 1.15
0.25 0.47 0.68 0.98 1.11 1.28 1.08 0.62 0.54 0.47 0.57 0.62 0.62 0.61 0.78 0.75 0.71 0.85 0.93 0.79 0.61 0.61 0.77 1.03 1.25 1.33 1.26 1.18 1.24 1.34 1.32 1.33 1.36 1.35 1.40 1.48 1.57 1.74 1.81 1.77 1.70 1.61 1.67 1.81 1.68 1.43 1.18 1.05 1.04
0.36 0.54 0.60 0.74 0.65 0.66 0.58 0.46 0.42 0.40 0.50 0.58 0.68 0.78 0.82 0.81 0.83 0.81 0.72 0.61 0.45 0.51 0.69 0.98 1.18 1.19 1.10 1.06 1.16 1.25 1.29 1.34 1.30 1.23 1.33 1.46 1.53 1.61 1.64 1.60 1.52 1.49 1.55 1.60 1.74 1.40 1.18 1.07 1.11
0.40 0.52 0.71 0.64 0.54 0.57 0.51 0.40 0.37 0.34 0.45 0.59 0.62 0.87 1.11 0.98 0.74 0.62 0.57 0.55 0.46 0.54 0.65 0.83 1.07 1.12 1.14 1.16 1.14 1.16 1.29 1.27 1.19 1.19 1.28 1.44 1.45 1.56 1.56 1.41 1.29 1.29 1.43 1.47 1.59 1.47 1.25 1.12 1.12
0.32 0.46 0.58 0.51 0.47 0.44 0.42 0.35 0.35 0.36 0.45 0.67 0.61 0.83 1.36 1.16 0.76 0.62 0.52 0.50 0.52 0.54 0.60 0.72 0.96 1.07 1.13 1.15 1.11 1.13 1.11 1.12 1.16 1.21 1.27 1.28 1.36 1.47 1.43 1.32 1.24 1.16 1.32 1.35 1.32 1.50 1.35 1.19 1.12
0.27 0.37 0.36 0.37 0.35 0.37 0.34 0.31 0.32 0.32 0.49 0.80 0.67 0.92 1.51 1.46 0.92 0.70 0.67 0.59 0.59 0.57 0.62 0.74 0.94 1.04 1.07 1.11 1.09 1.14 1.19 1.12 1.14 1.19 1.26 1.35 1.34 1.27 1.21 1.27 1.25 1.13 1.18 1.19 1.18 1.37 1.47 1.30 1.15
0.19 0.19 0.21 0.26 0.27 0.28 0.22 0.23 0.26 0.40 0.55 0.68 0.57 0.86 1.56 1.48 0.97 0.85 0.91 0.85 0.94 0.94 0.88 0.77 0.76 0.91 1.00 0.99 1.12 1.21 1.21 1.15 1.13 1.18 1.30 1.40 1.30 1.20 1.14 1.13 1.20 1.15 1.09 1.08 1.09 1.26 1.41 1.28 1.23
0.12 0.18 0.21 0.19 0.19 0.19 0.17 0.18 0.23 0.38 0.53 0.69 0.72 0.79 1.08 0.98 0.94 1.03 1.17 1.26 1.32 1.41 1.33 0.96 0.79 0.87 1.01 0.96 0.99 1.22 1.31 1.24 1.32 1.45 1.51 1.65 1.67 1.43 1.44 1.37 1.43 1.32 1.22 1.26 1.31 1.35 1.52 1.33 1.14
0.10 0.18 0.15 0.10 0.11 0.14 0.14 0.17 0.26 0.43 0.69 0.96 0.97 0.97 1.16 1.09 0.94 1.03 1.13 1.31 1.43 1.58 1.55 1.22 1.12 0.98 0.93 0.87 1.07 1.37 1.38 1.45 1.60 1.74 1.66 1.97 2.15 1.95 1.50 1.72 1.99 1.90 1.83 1.75 1.76 1.71 1.55 1.39 1.32
0.06 0.07 0.07 0.07 0.07 0.10 0.13 0.17 0.25 0.45 0.85 1.28 1.51 1.55 1.43 1.29 1.25 1.24 1.26 1.42 1.64 1.71 1.64 1.42 1.36 1.27 1.10 1.22 1.20 1.40 1.68 1.87 1.77 1.63 1.68 2.08 1.96 1.69 1.67 1.82 2.00 2.17 2.08 1.99 2.09 2.16 1.86 1.84 2.15
0.03 0.03 0.03 0.04 0.05 0.07 0.11 0.16 0.26 0.44 0.80 1.06 1.29 1.57 1.70 1.57 1.65 1.66 1.64 1.86 2.07 1.99 1.89 1.72 1.53 1.41 1.37 1.37 1.35 1.48 1.60 1.79 1.82 1.89 1.82 2.03 2.37 2.26 2.21 2.32 2.27 2.35 2.51 2.82 2.69 2.75 2.50 2.35 2.30
0.03 0.04 0.04 0.05 0.06 0.08 0.10 0.20 0.32 0.51 0.63 0.80 0.96 1.12 1.39 1.75 2.10 2.25 2.36 2.72 2.64 2.51 2.44 2.22 1.87 1.82 1.76 1.86 1.95 1.70 1.75 1.85 2.08 2.29 2.25 2.22 2.52 2.52 2.55 2.59 2.60 2.44 2.54 2.72 2.98 2.84 2.90 2.94 2.68
0.04 0.05 0.06 0.07 0.08 0.09 0.15 0.30 0.36 0.57 0.62 0.72 0.92 1.11 1.65 2.24 2.43 2.74 3.16 3.44 3.36 3.18 3.24 2.99 2.59 2.54 2.48 2.33 2.31 2.23 2.02 2.18 2.27 2.41 2.39 2.41 2.66 2.86 2.82 2.65 2.68 2.53 2.50 2.62 2.86 2.92 3.27 3.24 3.14
0.04 0.07 0.10 0.11 0.11 0.14 0.22 0.47 0.54 0.64 0.70 0.82 1.15 1.34 1.78 2.14 2.42 2.58 3.06 3.41 3.43 3.43 3.65 3.60 3.40 3.38 3.31 3.09 2.81 2.56 2.44 2.39 2.63 2.75 2.66 2.70 2.75 2.96 2.93 2.84 2.66 2.61 2.66 2.87 2.96 2.98 3.24 3.25 3.17
0.08 0.16 0.25 0.19 0.16 0.18 0.30 0.77 0.69 0.69 0.90 1.16 1.38 1.51 1.76 1.92 2.30 2.45 2.83 3.33 3.61 3.67 3.90 4.11 4.03 4.04 3.88 3.70 3.42 3.10 2.88 2.83 2.83 2.77 2.79 2.72 2.83 2.90 3.02 2.83 2.59 2.67 2.63 2.82 3.15 3.26 3.45 3.63 3.61
0.13 0.22 0.34 0.32 0.24 0.21 0.39 0.85 0.85 0.91 1.04 1.16 1.28 1.54 1.71 1.70 2.06 2.50 2.81 3.40 3.83 3.99 4.38 4.78 4.85 4.77 4.45 4.09 3.91 3.75 3.50 3.27 3.04 3.00 2.91 2.81 2.79 2.75 2.93 2.78 2.71 2.74 2.91 2.94 2.74 3.36 3.71 3.83 3.80
0.17 0.17 0.22 0.29 0.27 0.27 0.46 0.64 0.77 0.96 1.12 1.24 1.25 1.39 1.42 1.56 2.02 2.57 2.92 3.28 3.94 4.48 5.11 5.22 5.24 5.47 5.21 4.87 4.66 4.43 4.00 3.59 3.28 3.16 3.03 2.80 2.73 2.66 2.94 2.68 2.68 2.82 3.10 3.18 3.26 3.70 3.80 3.64 3.83
0.12 0.18 0.27 0.32 0.28 0.42 0.61 0.77 0.88 1.00 1.08 1.28 1.36 1.30 1.34 1.63 2.05 2.51 2.90 3.32 3.74 4.33 4.95 5.60 5.77 5.63 5.40 5.08 4.61 4.25 3.85 3.59 3.30 3.02 2.81 2.75 2.71 2.79 3.22 2.87 3.13 3.04 3.09 3.14 3.32 3.58 3.58 3.38 3.70
0.12 0.20 0.30 0.35 0.29 0.41 0.63 0.90 1.06 1.06 1.06 1.14 1.33 1.45 1.47 1.72 2.06 2.49 2.98 3.24 3.41 3.76 4.23 4.69 4.99 4.68 4.34 4.12 4.01 3.87 3.79 3.39 3.23 3.17 3.22 2.91 2.92 2.91 2.97 3.18 3.10 3.12 3.20 3.02 3.11 3.44 3.28 2.91 3.33
0.16 0.19 0.21 0.25 0.28 0.43 0.69 1.11 1.24 1.04 0.96 1.02 1.14 1.42 1.62 1.68 1.96 2.27 2.72 2.94 3.04 3.21 3.38 3.54 3.74 3.80 3.81 3.86 3.94 4.02 4.16 3.82 3.70 3.65 3.56 3.09 2.98 2.94 3.00 2.95 2.91 3.01 2.94 2.90 2.92 3.12 3.23 3.05 3.06
0.19 0.13 0.12 0.15 0.31 0.63 0.74 1.29 1.42 1.16 1.08 1.10 1.13 1.25 1.36 1.53 1.63 1.75 2.06 2.49 2.47 2.52 2.80 3.27 3.48 3.59 3.77 4.01 4.00 4.01 3.97 3.89 3.88 3.99 3.93 3.74 3.45 3.21 2.99 2.81 2.75 2.73 2.64 2.73 2.50 2.79 3.03 3.16 2.86
0.13 0.11 0.13 0.16 0.30 0.50 0.59 0.92 1.21 1.24 1.19 1.10 1.06 1.15 1.21 1.30 1.40 1.50 1.70 2.11 2.20 2.11 2.42 2.97 3.50 3.76 3.91 4.09 4.18 4.42 4.25 4.10 3.96 4.02 4.09 3.85 3.58 3.26 2.90 2.84 2.80 2.74 2.62 2.51 2.44 2.66 2.62 2.72 2.73
0.10 0.14 0.22 0.30 0.50 0.86 0.69 0.75 1.17 1.19 1.05 0.97 0.86 0.89 0.98 0.96 1.04 1.23 1.54 1.97 2.18 2.27 2.53 2.94 3.40 3.73 3.89 3.98 4.02 4.10 4.10 4.06 3.83 3.71 3.45 3.08 2.95 2.84 2.63 2.57 2.58 2.49 2.49 2.48 2.45 2.47 2.44 2.52 2.60
0.11 0.22 0.65 1.01 1.27 1.27 0.67 0.70 1.06 0.91 0.86 0.81 0.88 0.88 0.80 0.79 0.87 0.90 1.02 1.20 1.34 1.55 1.82 2.11 2.49 2.83 3.04 3.20 3.27 3.26 3.47 3.49 3.21 2.95 2.75 2.45 2.23 2.10 2.10 2.19 2.25 2.19 2.23 2.25 2.39 2.32 2.24 2.35 2.50
0.11 0.15 0.46 0.72 0.83 0.92 0.82 1.13 1.14 0.80 0.69 0.70 0.78 0.76 0.62 0.57 0.56 0.58 0.63 0.74 1.00 1.28 1.66 1.88 1.96 2.11 2.35 2.52 2.60 2.64 2.71 2.66 2.47 2.54 2.30 2.09 1.93 1.82 1.91 2.01 1.99 1.96 1.98 1.93 2.20 2.07 2.03 2.14 2.21
0.08 0.09 0.15 0.24 0.34 0.65 0.95 1.29 1.21 0.88 0.82 0.75 0.64 0.56 0.51 0.42 0.41 0.46 0.49 0.57 0.79 1.07 1.33 1.47 1.62 1.85 2.10 2.30 2.28 2.24 2.09 2.07 2.12 2.10 1.95 1.86 1.91 1.81 1.90 1.89 1.93 1.92 1.96 2.02 2.14 2.00 1.96 2.15 2.11
0.10 0.11 0.14 0.18 0.36 0.65 0.91 1.25 1.37 1.10 0.99 0.80 0.73 0.77 0.54 0.40 0.38 0.46 0.46 0.52 0.65 0.77 1.02 1.22 1.42 1.69 1.83 1.94 1.95 1.88 1.88 1.83 1.85 1.80 1.76 1.75 1.83 1.88 1.92 1.92 2.01 1.93 1.89 1.93 1.97 1.77 1.78 2.02 2.07
0.13 0.13 0.14 0.16 0.21 0.45 0.84 1.11 1.01 0.93 0.83 0.69 0.68 0.66 0.58 0.52 0.41 0.38 0.43 0.48 0.60 0.76 0.97 1.23 1.44 1.57 1.64 1.65 1.69 1.76 1.73 1.72 1.75 1.69 1.63 1.69 1.86 1.89 1.85 1.82 1.83 1.84 1.81 1.85 1.88 1.68 1.82 1.98 2.03
0.14 0.14 0.15 0.20 0.20 0.23 0.48 0.84 0.71 0.66 0.69 0.67 0.64 0.64 0.63 0.55 0.51 0.50 0.57 0.61 0.68 0.82 0.96 1.26 1.53 1.58 1.62 1.69 1.83 1.94 1.99 2.01 1.96 1.76 1.65 1.71 1.82 1.87 1.89 1.88 1.84 1.74 1.76 1.94 2.00 1.89 1.97 2.07 2.06